EW9472 Edison NJ US current weather conditions

sailwx.info

Wind from 306 at 4 knots gusting 8

Air temperature 3.9° C
Dewpoint -3.2° C

Last reported at 2020-Jan-28 23:00 UTC.
Time now 2020-Jan-28 23:44 UTC

Location: N 40°32' W 074°24'.
View on Google Maps.

See reports from other nearby stations

  
Tides and Currents Weather Stations Pressure Air Temp Water Temp Dewpoint Dewpoint Depression Visibility Wind Speed Wind Dir Waves Ship Positions
date/time (UTC)wind fromknots sea level pressurealtimeterstation pressurevisibilityair tempwater tempwave heightnotes
2020-Jan-28 23:00 306 4 gusting 8 3.9
2020-Jan-28 22:45 310 6 gusting 11 3.9
2020-Jan-28 22:30 299 3 gusting 7 3.9
2020-Jan-28 22:15 313 1 gusting 8 3.9
2020-Jan-28 22:00 005 4 gusting 7 3.9
2020-Jan-28 21:45 293 2 gusting 11 3.9
2020-Jan-28 21:30 309 1 gusting 8 3.9
2020-Jan-28 21:15 277 4 gusting 10 3.9
2020-Jan-28 21:00 296 6 gusting 10 4.4
2020-Jan-28 20:45 284 1 gusting 8 4.4
2020-Jan-28 20:30 321 5 gusting 12 4.4
2020-Jan-28 20:17 309 4 gusting 14 4.4
2020-Jan-28 20:02 298 4 gusting 13 4.4
2020-Jan-28 19:46 013 4 gusting 13 5.0
2020-Jan-28 19:32 013 2 gusting 9 5.0
2020-Jan-28 19:17 325 1 gusting 14 5.0
2020-Jan-28 19:02 329 3 gusting 9 5.0
2020-Jan-28 18:47 344 4 gusting 17 5.6
2020-Jan-28 18:34 305 0 gusting 16 5.6
2020-Jan-28 18:17 342 3 gusting 13 6.7
2020-Jan-28 18:01 310 2 gusting 13 7.2
2020-Jan-28 17:46 331 4 gusting 16 6.7
2020-Jan-28 17:31 293 5 gusting 18 6.1
2020-Jan-28 17:16 299 5 gusting 14 6.1
2020-Jan-28 17:01 324 2 gusting 13 6.7
2020-Jan-28 16:47 306 6 gusting 13 6.7
2020-Jan-28 16:31 310 4 gusting 16 6.7
2020-Jan-28 16:17 013 2 gusting 15 6.7
2020-Jan-28 16:01 040 4 gusting 11 6.7
2020-Jan-28 15:46 324 6 gusting 17 6.1
2020-Jan-28 15:34 036 6 gusting 13 5.6
2020-Jan-28 15:16 303 3 gusting 12 5.6
2020-Jan-28 15:02 338 4 gusting 11 4.4
2020-Jan-28 14:46 360 6 gusting 11 3.9
2020-Jan-28 14:31 293 2 gusting 11 3.9
2020-Jan-28 14:15 302 3 gusting 10 3.3
2020-Jan-28 14:00 312 2 gusting 8 2.8
2020-Jan-28 13:46 313 1 gusting 6 2.2
2020-Jan-28 13:31 303 1.7
2020-Jan-28 13:15 308 1 gusting 5 1.7
2020-Jan-28 13:01 311 1.7
2020-Jan-28 12:45 311 1.7
2020-Jan-28 12:30 310 1.7
2020-Jan-28 12:15 312 1.7
2020-Jan-28 12:00 310 0 gusting 4 1.7
2020-Jan-28 11:45 315 2.2
2020-Jan-28 11:30 311 0 gusting 6 2.2
2020-Jan-28 11:15 311 3 gusting 10 2.2
2020-Jan-28 11:00 311 5 gusting 10 2.8
2020-Jan-28 10:45 304 3 gusting 8 2.8
2020-Jan-28 10:30 296 2 gusting 8 2.8
2020-Jan-28 10:15 293 0 gusting 7 2.8
2020-Jan-28 10:00 316 2 gusting 8 2.8
2020-Jan-28 09:45 309 4 gusting 8 2.8
2020-Jan-28 09:30 312 4 gusting 13 2.8
2020-Jan-28 09:17 300 2 gusting 10 2.8
2020-Jan-28 09:02 289 2 gusting 7 2.2
2020-Jan-28 08:46 315 2 gusting 7 2.8
2020-Jan-28 08:32 299 3 gusting 7 2.8
2020-Jan-28 08:18 304 5 gusting 11 3.3
2020-Jan-28 08:02 338 1 gusting 8 3.3
2020-Jan-28 07:47 309 0 gusting 4 3.3
2020-Jan-28 07:31 297 4 gusting 8 3.3
2020-Jan-28 07:16 305 1 gusting 9 3.3
2020-Jan-28 07:02 355 0 gusting 5 3.3
2020-Jan-28 06:46 311 2 gusting 12 3.9
2020-Jan-28 06:31 300 4 gusting 8 3.9
2020-Jan-28 06:15 304 3.9
2020-Jan-28 06:01 303 3.9
2020-Jan-28 05:45 304 3.9
2020-Jan-28 05:31 304 3.9
2020-Jan-28 05:16 302 2 gusting 5 3.9
2020-Jan-28 05:02 300 3.9
2020-Jan-28 04:45 302 2 gusting 6 3.9
2020-Jan-28 04:30 299 4.4
2020-Jan-28 04:16 298 4.4
2020-Jan-28 04:01 298 4.4
2020-Jan-28 03:45 299 4.4
2020-Jan-28 03:32 298 4.4
2020-Jan-28 03:16 298 4.4
2020-Jan-28 03:00 298 4.4
2020-Jan-28 02:45 296 4.4
2020-Jan-28 02:31 297 4.4
2020-Jan-28 02:15 298 4.4
2020-Jan-28 02:00 298 5.0
2020-Jan-28 01:46 298 5.0
2020-Jan-28 01:30 298 0 gusting 4 5.0
2020-Jan-28 01:15 298 2 gusting 7 5.0
2020-Jan-28 01:00 298 5.0
2020-Jan-28 00:46 300 2 gusting 6 5.0
2020-Jan-28 00:30 298 0 gusting 6 5.0
2020-Jan-28 00:15 290 2 gusting 6 5.0
2020-Jan-28 00:00 296 5.6
2020-Jan-27 23:45 295 5.6
2020-Jan-27 23:30 299 5.6
2020-Jan-27 23:16 302 2 gusting 6 5.6
2020-Jan-27 23:00 304 6.1
2020-Jan-27 22:45 300 1 gusting 7 6.1
2020-Jan-27 22:30 299 0 gusting 10 6.1
2020-Jan-27 22:15 304 3 gusting 12 6.1
2020-Jan-27 22:00 320 4 gusting 7 6.1
2020-Jan-27 21:45 311 2 gusting 11 6.1
2020-Jan-27 21:30 299 6 gusting 9 6.1
2020-Jan-27 21:15 312 0 gusting 10 6.1
2020-Jan-27 21:00 360 3 gusting 8 6.7
2020-Jan-27 20:45 304 4 gusting 11 6.7
2020-Jan-27 20:30 295 3 gusting 12 6.7
2020-Jan-27 20:15 295 6.7
2020-Jan-27 20:00 257 0 gusting 9 6.7
2020-Jan-27 19:45 295 3 gusting 8 6.1
2020-Jan-27 19:30 290 2 gusting 9 6.1
2020-Jan-27 19:18 303 1 gusting 9 6.1
2020-Jan-27 19:01 285 6.1
2020-Jan-27 18:46 270 2 gusting 12 6.1
2020-Jan-27 18:32 268 3 gusting 11 6.1
2020-Jan-27 18:17 284 6.1
2020-Jan-27 18:02 290 6 gusting 12 6.1
2020-Jan-27 17:47 250 2 gusting 7 6.1
2020-Jan-27 17:32 266 6.1
2020-Jan-27 17:16 246 1 gusting 9 5.6
2020-Jan-27 17:00 247 5.6
2020-Jan-27 16:46 251 5.6
2020-Jan-27 16:31 265 5.6
2020-Jan-27 16:15 360 1 gusting 9 5.0
2020-Jan-27 16:00 264 1 gusting 13 5.6
2020-Jan-27 15:45 265 4 gusting 11 5.0
2020-Jan-27 15:30 243 3 gusting 8 5.0
2020-Jan-27 15:15 244 2 gusting 7 5.0
2020-Jan-27 15:01 270 0 gusting 6 4.4
2020-Jan-27 14:45 253 4.4
2020-Jan-27 14:30 245 3 gusting 10 3.9
2020-Jan-27 14:15 283 2 gusting 10 3.9
2020-Jan-27 14:00 258 3.3
2020-Jan-27 13:47 275 0 gusting 7 3.3
2020-Jan-27 13:32 259 1 gusting 7 2.8
2020-Jan-27 13:17 281 1 gusting 9 2.8
2020-Jan-27 13:02 252 2 gusting 7 2.8
2020-Jan-27 12:46 256 2.2
2020-Jan-27 12:33 255 2.2
2020-Jan-27 12:17 263 2.2
2020-Jan-27 12:03 249 2.2
2020-Jan-27 11:46 268 2.2
2020-Jan-27 11:32 271 0 gusting 6 2.2
2020-Jan-27 11:17 273 2.2
2020-Jan-27 11:01 275 2.2
2020-Jan-27 10:47 297 1 gusting 9 2.2
2020-Jan-27 10:31 265 2 gusting 8 2.2
2020-Jan-27 10:16 257 2.2
2020-Jan-27 10:01 271 0 gusting 6 1.7
2020-Jan-27 09:46 276 2.2
2020-Jan-27 09:31 274 1.7
2020-Jan-27 09:16 274 1.7
2020-Jan-27 09:02 281 1.7
2020-Jan-27 08:46 287 2.2
2020-Jan-27 08:30 291 2.2
2020-Jan-27 08:16 281 1.7
2020-Jan-27 08:01 283 0 gusting 6 1.7
2020-Jan-27 07:47 266 1.7
2020-Jan-27 07:32 267 1.7
2020-Jan-27 07:15 269 0 gusting 6 1.1
2020-Jan-27 07:01 279 0.6
2020-Jan-27 06:45 285 -0.0
2020-Jan-27 06:31 284 -0.0
2020-Jan-27 06:15 285 0.6
2020-Jan-27 06:00 284 -0.0
2020-Jan-27 05:45 285 -0.6
2020-Jan-27 05:30 285 -1.1
2020-Jan-27 05:15 285 -0.6
2020-Jan-27 05:00 284 -0.6
2020-Jan-27 04:49 285 -0.0
2020-Jan-27 04:31 285 0.6
2020-Jan-27 04:17 285 1.1
2020-Jan-27 04:03 285 2.2
2020-Jan-27 03:47 286 2.2
2020-Jan-27 03:31 288 2.2
2020-Jan-27 03:16 284 2.8
2020-Jan-27 03:03 285 2.8
2020-Jan-27 02:48 287 3.3
2020-Jan-27 02:31 280 3.3
2020-Jan-27 02:17 285 1 gusting 7 2.8
2020-Jan-27 02:02 284 2.8
2020-Jan-27 01:47 284 2.8
2020-Jan-27 01:31 280 3.3
2020-Jan-27 01:17 281 3.3
2020-Jan-27 01:01 279 1 gusting 6 3.9
2020-Jan-27 00:47 293 3.9
2020-Jan-27 00:32 290 1 gusting 6 3.9
2020-Jan-27 00:16 296 1 gusting 7 4.4
2020-Jan-27 00:02 281 4 gusting 12 4.4
2020-Jan-26 23:46 295 4 gusting 8 5.0
2020-Jan-26 23:32 296 5.0
2020-Jan-26 23:17 294 1 gusting 8 5.6
2020-Jan-26 23:02 302 2 gusting 11 6.1